Home   Weather   Vallejo   Past weeks

Flag for USA Past Weather in Vallejo, California, USA — Yesterday and Last 2 Weeks

Now
56 °F

Fog.


Feels Like: 55 °F
Forecast: 53 / 60 °F
Wind: 5 mph from West

Location: Napa County Airport

Current Time: Dec 9, 2016 at 9:50:59 am

Latest Report: Dec 9, 2016 at 9:04 am


Visibility: 4 mi

Pressure: 30.24 "Hg

Humidity: 90%

Dew Point: 53 °F

Location of VallejoLocation

Past Weather in Vallejo — Graph

°F

Vallejo Temperature Yesterday

Maximum temperature yesterday: 55 °F (at 5:54 pm)
Minimum temperature yesterday: 44 °F (at 12:54 am)
Average temperature yesterday: 51 °F

High & Low Weather Summary for the Past Weeks

 TemperatureHumidityPressure
High65 °F (Dec 2, 1:54 pm)97% (Dec 1, 7:54 am)30.34 "Hg (Dec 1, 7:54 am)
Low31 °F (Dec 6, 6:54 am)27% (Dec 2, 1:54 pm)29.76 "Hg (Nov 26, 4:54 am)
Average50 °F74%30.08 "Hg
* Reported Nov 24 7:54 am — Dec 9 7:54 am, Vallejo, Weather by CustomWeather, © 2016

Note: Actual official high and low records may vary slightly from our data, if they occured in-between our weather recording intervals... More about our weather records

Advertising

Vallejo Weather History for the Previous 24 Hours

Scroll right to see more
 ConditionsComfort  
Time TempWeatherWind HumidityBarometerVisibility
7:54 am
Fri, Dec 9
54 °FFog.5 mph90%30.19 "Hg5 mi
7:02 am53 °FLight rain. Fog.5 mph89%30.22 "Hg2 mi
6:54 am53 °FLight rain. Fog.No wind89%30.19 "Hg3 mi
6:03 am54 °FLight rain. Fog.5 mph90%30.20 "Hg2 mi
4:54 am54 °FLow clouds.6 mph86%30.16 "Hg10 mi
3:54 am54 °FLow clouds.6 mph90%30.18 "Hg10 mi
3:03 am55 °FFog.3 mph90%30.20 "Hg3 mi
2:54 am55 °FFog.3 mph90%30.17 "Hg3 mi
1:54 am55 °FFog.No wind90%30.17 "Hg3 mi
12:54 am54 °FFog.No wind93%30.17 "Hg4 mi
11:54 pm
Thu, Dec 8
54 °FFog.No wind93%30.17 "Hg1 mi
10:54 pm54 °FLight rain. Fog.6 mph93%30.16 "Hg3 mi
9:54 pm54 °FFog.9 mph93%30.15 "Hg6 mi
8:54 pm54 °FMostly cloudy.13 mph90%30.15 "Hg7 mi
7:54 pm54 °FLight rain. Fog.10 mph90%30.14 "Hg3 mi
6:54 pm55 °FFog.10 mph87%30.13 "Hg5 mi
5:54 pm55 °FFog.10 mph87%30.11 "Hg6 mi
4:54 pm54 °FLight rain. Fog.13 mph90%30.11 "Hg6 mi
3:54 pm54 °FLight rain. Fog.10 mph90%30.11 "Hg2 mi
2:54 pm54 °FFog.14 mph86%30.09 "Hg5 mi
1:54 pm53 °FLight rain. Fog.12 mph89%30.09 "Hg2 mi
12:54 pm53 °FFog.12 mph86%30.09 "Hg5 mi
11:54 am52 °FFog.13 mph86%30.10 "Hg2 mi
11:04 am50 °FFog.10 mph89%30.14 "Hg2 mi
10:57 am51 °FFog.12 mph86%30.14 "Hg2 mi
9:54 am50 °FOvercast.16 mph86%30.10 "Hg7 mi
Weather by CustomWeather, © 2016

See weather overviewHow to use our weather pages